Meath Environmental Platform

Observations for Trim Patrick St

Time AQI Temp °C Hum % Pres Pa CO μg/m³ H₂S μg/m³ NO μg/m³ NO₂ μg/m³ O₃ μg/m³ SO₂ μg/m³ PM1 μg/m³ PM2.5 μg/m³ PM10 μg/m³
Wednesday 26 August 2026
13:03 2 20.6 79 38,460 0.08 0 3.41 21.28 36.93 1.16 15.71 17.95 19.74
13:02 2 20.5 78 38,460 0.09 0 3.47 12.84 39.6 0.5 12.29 16.63 18.29
13:01 2 20.5 79 38,460 0.09 1.01 2.84 22.93 31.91 0.74 14 19.36 21.3
13:00 2 20.5 80 38,460 0.1 2.7 2.55 47.86 24.17 2.46 15.71 20.61 22.67
12:59 2 20.4 78 38,460 0.06 0.7 2.36 23.28 41.35 0.67 14 17.29 19.02
12:58 2 20.4 80 38,460 0.04 0 1.54 16.59 39.41 0 15.71 17.84 19.63
12:57 2 20.3 78 38,460 0.06 0 1.59 15.73 44.84 0.12 13.14 18.01 19.81
12:56 2 20.3 79 38,460 0.11 0.99 1.52 26.15 35.31 0.8 13.14 17.96 19.75
12:55 2 20.3 79 38,460 0.05 0 1.39 16.78 43.78 0 10.57 16.56 18.22
12:54 2 20.2 80 38,460 0.08 0 1.13 14.01 41.81 0 15.71 22.07 24.28
12:53 2 20.2 78 38,460 0.08 0 1.08 11.98 39.49 0.2 14 18.04 19.84
12:52 2 20.2 78 38,460 0.08 0 1.15 12.18 39.79 0.1 13.14 18.7 20.57
12:51 2 20.1 78 38,460 0.08 0 1.15 14.26 38.29 0.56 14 19.42 21.36
12:50 2 20.1 78 38,460 0.07 0 1.09 14.39 35.61 0.53 12.29 17.32 19.06
12:49 2 20.1 79 38,460 0.05 0 1.42 16.95 36.51 1.04 15.71 19.34 21.27
12:48 2 20 79 38,460 0.06 0 1.66 14.08 37.29 0 14 18.67 20.54
12:47 2 20 79 38,460 0.06 0 1.71 15.1 48.79 0 14.86 20.73 22.81
12:46 2 20 78 38,460 0.06 0 1.76 12.57 36.52 0 14.86 18.74 20.62
12:45 2 20 78 38,460 0.05 0 2.33 11.7 38.97 0 14 20.09 22.09
12:44 2 20 78 38,460 0.08 0 2.12 9.34 41.11 0 14.86 18.74 20.62